[[{"header":{"parameterUnit":"m.s-1","parameterCategory":1,"la1":30.2991,"la2":30.254,"lo1":-89.0895,"lo2":-89.0444,"dy":0.0017,"dx":0.0017,"nx":28,"ny":28,"refTime":"2024-08-08T09:00:00:Z","depth":0,"parameterNumber":2,"parameterNumberName":"U-component_of_WINDS"},"data":[0,0,0,0,0,0,0,0,0,0,0,0,0,0,0,0,0,0,0,0,0,0,0,0,0,0,0,0,0,0,0,0,0,0,0,0,0,0,0,0,0,0,0,0,0,0,0,0,0,0,0,0,0,0,0,0,0,0,0.1014,0.1016,0,0.1214,0.1216,0.1218,0.129,0.129,0.1289,0.1288,0.1504,0.151,0.1516,0,0,0,0,0,0,0,0,0,0,0,0,0,0.0704,0.0709,0.1014,0.1016,0.1019,0.1213,0.1216,0.1219,0.129,0.129,0.1289,0.1288,0.1501,0.1509,0.1517,0,0,0,0,0,0,0,0,0,0,0,0,0,0.0865,0.0711,0.1013,0.1077,0.1085,0.1213,0.1216,0.122,0.1291,0.129,0.1288,0.1287,0.1499,0.1508,0.1518,0.1599,0,0,0.1547,0.1551,0,0,0,0,0,0,0,0,0.0855,0.0876,0.1066,0.1073,0.1082,0.1226,0.1186,0.1347,0.1291,0.1213,0.1288,0.1287,0.1413,0.1429,0.147,0.1609,0.1619,0.1548,0.1554,0.1558,0.1561,0,0,0,0,0,0,0,0.0844,0.0868,0.1093,0.1068,0.1078,0.11,0.1121,0.1217,0.1317,0.122,0.1225,0.1247,0.1417,0.146,0.1475,0.1622,0.1548,0.1556,0.1562,0.1566,0.184,0.1842,0,0,0,0,0,0,0.0821,0.0858,0.1087,0.1099,0.0963,0.1106,0.113,0.1181,0.1316,0.1335,0.1248,0.125,0.1444,0.1464,0.1483,0.1588,0.1558,0.1567,0.1573,0.1839,0.1841,0.1842,0,0,0,0,0,0,0.0814,0.084,0.1079,0.098,0.1012,0.1113,0.1169,0.1185,0.1228,0.1337,0.1357,0.1273,0.1444,0.147,0.157,0.1597,0.1571,0.158,0.1837,0.1839,0.1841,0.1798,0,0,0,0,0,0,0.0805,0.0837,0.0867,0.098,0.1017,0.1158,0.1171,0.119,0.1244,0.1248,0.1366,0.1385,0.1445,0.1555,0.1579,0.161,0.1588,0.1835,0.1838,0.1841,0.1798,0.1799,0.18,0,0,0,0,0,0.0793,0.0849,0.0868,0.0895,0.1055,0.116,0.1181,0.1247,0.1245,0.1278,0.1348,0.1381,0.1589,0.1564,0.1592,0.1626,0.1834,0.1837,0.184,0.1797,0.1799,0.18,0,0,0,0,0,0,0.0741,0.0865,0.0888,0.0981,0.1059,0.1172,0.1214,0.1246,0.1329,0.133,0.1411,0.1437,0.1531,0.1589,0.1559,0.1713,0.1714,0.1723,0.1671,0.1674,0.1674,0.1659,0.1596,0,0,0,0,0,0.0739,0.081,0.0916,0.0989,0.1026,0.1113,0.1161,0.1205,0.129,0.1324,0.1402,0.1486,0.1571,0.1626,0.171,0.1806,0.1834,0.1843,0.1844,0.1844,0.1852,0.1909,0.1914,0.1853,0.1853,0.1853,0,0,0.0738,0.0815,0.0856,0.098,0.1045,0.112,0.1141,0.1219,0.1276,0.1338,0.1436,0.1495,0.1596,0.1694,0.1741,0.1745,0.1875,0.1849,0.1848,0.1856,0.1913,0.1918,0.1923,0.1856,0.1855,0.1855,0,0,0.0775,0.0839,0.0906,0.0971,0.1068,0.1125,0.1141,0.125,0.129,0.1389,0.1437,0.1508,0.1652,0.1721,0.1775,0.1837,0.1872,0.1863,0.1868,0.1923,0.1927,0.1932,0.1955,0.1963,0.187,0.187,0.1869,0,0.0763,0.0873,0.0938,0.1013,0.1068,0.1123,0.1193,0.1254,0.1375,0.1413,0.1414,0.1596,0.1667,0.1783,0.1798,0.1839,0.1863,0.185,0.1921,0.1926,0.1932,0.1955,0.1963,0.1868,0.1868,0.1868,0.1868,0,0.0854,0.0931,0.0974,0.1085,0.1145,0.1218,0.1296,0.1349,0.1387,0.1445,0.1547,0.1634,0.1736,0.1767,0.1807,0.1889,0.1889,0.1904,0.1907,0.1935,0.1958,0.1967,0.1865,0.1866,0.1867,0.1867,0,0,0.0865,0.1009,0.1024,0.1076,0.1187,0.1249,0.1325,0.1422,0.1467,0.1549,0.1616,0.1736,0.1751,0.1812,0.1861,0.1908,0.1953,0.1919,0.1922,0.1923,0.2051,0.2038,0.2048,0.1975,0.1977,0.1979,0.2043,0,0.0917,0.1051,0.1111,0.122,0.1293,0.1346,0.1413,0.149,0.1546,0.1619,0.1683,0.1766,0.1779,0.1817,0.1866,0.1936,0.198,0.1933,0.2042,0.2045,0.2016,0.206,0.2048,0.2103,0.2052,0.2054,0.2055,0,0.0996,0.1074,0.1188,0.129,0.1323,0.1382,0.1476,0.1543,0.1633,0.1671,0.1738,0.1783,0.1869,0.1864,0.1985,0.1951,0.2,0.2041,0.2045,0.2059,0.2052,0.2076,0.2123,0.2131,0.207,0.2068,0.2067,0,0.0993,0.1127,0.1213,0.1256,0.1377,0.1417,0.147,0.1558,0.1612,0.1695,0.1732,0.1825,0.1876,0.1949,0.202,0.201,0.2134,0.2135,0.217,0.2168,0.2195,0.2193,0.2251,0.2224,0.2224,0.2223,0.2223,0,0.1046,0.1114,0.1213,0.1266,0.1346,0.1415,0.1493,0.1551,0.1628,0.1696,0.1749,0.1812,0.19,0.1976,0.2032,0.2124,0.2147,0.2182,0.2196,0.2178,0.2173,0.2212,0.221,0.2226,0.2225,0.2225,0.2224,0,0.1057,0.1125,0.1223,0.1328,0.1356,0.141,0.1503,0.1558,0.1616,0.1701,0.1725,0.1818,0.1909,0.1986,0.2107,0.2145,0.224,0.2257,0.2209,0.2217,0.2247,0.2244,0.2334,0.235,0.231,0.231,0.231,0,0.1086,0.114,0.125,0.1297,0.1348,0.1424,0.1478,0.155,0.1605,0.1711,0.1754,0.1848,0.1927,0.2071,0.2151,0.2244,0.2265,0.229,0.2279,0.2259,0.2267,0.2263,0.2269,0.2291,0.2291,0.2291,0.2291,0,0.1132,0.1163,0.1238,0.1324,0.1387,0.146,0.1535,0.1571,0.1657,0.1717,0.1809,0.187,0.1992,0.2086,0.2187,0.2246,0.2284,0.2293,0.2306,0.2289,0.2259,0.2276,0.2212,0.2291,0.2291,0.2291,0.2291,0.2291,0.1155,0.1205,0.1289,0.1371,0.1434,0.1502,0.1558,0.1622,0.1699,0.1801,0.1839,0.1933,0.2023,0.2163,0.2221,0.2298,0.2304,0.2323,0.2328,0.2332,0.2329,0.2245,0.2317,0.2317,0.2318,0.2318,0.2318,0,0.1204,0.1261,0.1335,0.1435,0.15,0.1525,0.1609,0.1663,0.1744,0.1822,0.1898,0.2004,0.2095,0.2181,0.2278,0.2323,0.2343,0.2346,0.2344,0.2357,0.2319,0.2298,0.2328,0.2328,0.2328,0.2328,0.2328,0.2328,0.1238,0.1323,0.1364,0.1482,0.154,0.1629,0.1675,0.1739,0.1802,0.1916,0.1991,0.2045,0.2128,0.223,0.2315,0.2339,0.2372,0.2371,0.2399,0.2362,0.236,0.2358,0.2339,0.2377,0.2377,0.2432,0.2432,0.2433]},{"header":{"parameterUnit":"m.s-1","parameterCategory":1,"la1":30.2991,"la2":30.254,"lo1":-89.0895,"lo2":-89.0444,"dy":0.0017,"dx":0.0017,"nx":28,"ny":28,"refTime":"2024-08-08T09:00:00:Z","depth":0,"parameterNumber":3,"parameterNumberName":"V-component_of_WINDS"},"data":[0,0,0,0,0,0,0,0,0,0,0,0,0,0,0,0,0,0,0,0,0,0,0,0,0,0,0,0,0,0,0,0,0,0,0,0,0,0,0,0,0,0,0,0,0,0,0,0,0,0,0,0,0,0,0,0,0,0,1.5558,1.5561,0,1.5916,1.592,1.5924,1.5984,1.5981,1.5978,1.5975,1.6329,1.6341,1.6353,0,0,0,0,0,0,0,0,0,0,0,0,0,1.4909,1.4921,1.5557,1.5562,1.5566,1.5916,1.5921,1.5925,1.5985,1.5981,1.5977,1.5974,1.6325,1.6339,1.6354,0,0,0,0,0,0,0,0,0,0,0,0,0,1.5221,1.4925,1.5556,1.5638,1.5649,1.5915,1.5921,1.5927,1.5986,1.5981,1.5976,1.5972,1.632,1.6338,1.6356,1.6561,0,0,1.6412,1.642,0,0,0,0,0,0,0,0,1.5203,1.5245,1.5622,1.5633,1.5646,1.5901,1.5822,1.6139,1.5987,1.5857,1.5975,1.597,1.6189,1.6218,1.6295,1.6577,1.6592,1.6414,1.6425,1.6433,1.6438,0,0,0,0,0,0,0,1.5182,1.523,1.5699,1.5627,1.5642,1.5652,1.5692,1.5882,1.6044,1.5868,1.5874,1.5916,1.6195,1.6277,1.6304,1.6598,1.6413,1.643,1.6441,1.6448,1.7064,1.7069,0,0,0,0,0,0,1.5147,1.5211,1.5687,1.571,1.5409,1.5668,1.5712,1.5824,1.6042,1.6072,1.592,1.5917,1.6248,1.6282,1.6316,1.6571,1.6433,1.645,1.646,1.7058,1.7065,1.7071,0,0,0,0,0,0,1.5133,1.5189,1.5673,1.5462,1.5525,1.5684,1.5809,1.5833,1.5916,1.6081,1.6109,1.5975,1.6246,1.629,1.65,1.6584,1.6458,1.6475,1.7052,1.706,1.7068,1.7081,0,0,0,0,0,0,1.5114,1.5184,1.5267,1.5464,1.5536,1.5855,1.5814,1.5843,1.5949,1.595,1.6141,1.6168,1.6246,1.6473,1.6518,1.6607,1.6489,1.7045,1.7056,1.7065,1.7073,1.7088,1.7101,0,0,0,0,0,1.5091,1.5253,1.5271,1.5328,1.5644,1.586,1.5901,1.5992,1.5955,1.6038,1.6144,1.6161,1.6567,1.6494,1.6546,1.6641,1.7041,1.7053,1.7065,1.7067,1.7085,1.71,0,0,0,0,0,0,1.5057,1.528,1.5303,1.5534,1.5678,1.587,1.5977,1.6007,1.6161,1.6155,1.6256,1.6298,1.6503,1.6592,1.6507,1.6849,1.68,1.6823,1.6784,1.6803,1.6816,1.679,1.6504,0,0,0,0,0,1.5077,1.5239,1.5424,1.561,1.5682,1.5817,1.5914,1.5972,1.6123,1.6183,1.6305,1.6447,1.6606,1.6709,1.6865,1.7086,1.7127,1.7176,1.719,1.72,1.7219,1.7341,1.7365,1.711,1.711,1.711,0,0,1.5119,1.5261,1.5356,1.5607,1.5725,1.5887,1.5868,1.6039,1.6159,1.6208,1.6416,1.6508,1.6673,1.689,1.6991,1.697,1.7298,1.7215,1.7222,1.7236,1.7356,1.738,1.7401,1.7118,1.7117,1.7115,0,0,1.5279,1.5403,1.5573,1.5693,1.5874,1.5963,1.6003,1.6191,1.6257,1.6467,1.6507,1.6647,1.692,1.7037,1.7131,1.7333,1.7354,1.738,1.7451,1.7569,1.7589,1.7608,1.768,1.7704,1.7398,1.7398,1.7398,0,1.5307,1.5557,1.5654,1.5826,1.5934,1.599,1.616,1.6269,1.649,1.6561,1.6536,1.688,1.6994,1.7238,1.7288,1.7362,1.7409,1.736,1.758,1.7599,1.7617,1.7687,1.7714,1.74,1.74,1.74,1.74,0,1.5582,1.5754,1.5868,1.6086,1.6206,1.6375,1.6494,1.6603,1.6649,1.6739,1.695,1.709,1.7275,1.7336,1.7381,1.7587,1.7568,1.756,1.7513,1.7642,1.7709,1.7737,1.7403,1.7402,1.7402,1.7401,0,0,1.5731,1.6002,1.6042,1.6142,1.6345,1.6478,1.6647,1.6834,1.6924,1.7073,1.7216,1.7445,1.744,1.7547,1.7604,1.7708,1.7858,1.7687,1.7692,1.7714,1.8092,1.8098,1.8127,1.7873,1.7878,1.7883,1.8078,0,1.5915,1.6228,1.632,1.6579,1.6739,1.6793,1.6941,1.7079,1.7167,1.731,1.7404,1.7566,1.7546,1.7611,1.7715,1.7818,1.7936,1.7805,1.8004,1.801,1.7963,1.8163,1.817,1.8347,1.8105,1.8109,1.8112,0,1.6173,1.6333,1.661,1.6794,1.6864,1.6996,1.7174,1.7312,1.7467,1.7523,1.7643,1.7692,1.7866,1.7808,1.8048,1.7957,1.8043,1.8105,1.8114,1.8137,1.807,1.8191,1.8406,1.8433,1.8155,1.8151,1.8148,0,1.6255,1.6538,1.6742,1.6824,1.7044,1.7135,1.7229,1.7382,1.7487,1.764,1.7709,1.7877,1.7969,1.8096,1.8187,1.8137,1.8418,1.8368,1.8467,1.8465,1.8525,1.8521,1.8758,1.8579,1.8578,1.8578,1.8577,0,1.6451,1.6619,1.6782,1.6906,1.7094,1.7196,1.7377,1.7473,1.7608,1.7749,1.7803,1.7933,1.8045,1.8188,1.8259,1.8447,1.8487,1.8534,1.8552,1.8531,1.8525,1.8589,1.858,1.8585,1.8583,1.8582,1.8581,0,1.6575,1.6691,1.6916,1.7107,1.7158,1.7288,1.7449,1.7569,1.7659,1.7836,1.7883,1.8022,1.8193,1.8297,1.8511,1.8559,1.8766,1.8777,1.8715,1.8723,1.8817,1.8807,1.9105,1.9149,1.8939,1.8941,1.8942,0,1.6694,1.6825,1.7031,1.7132,1.723,1.7391,1.75,1.7603,1.7714,1.7902,1.7998,1.8175,1.8321,1.8591,1.8708,1.8872,1.8888,1.8981,1.8913,1.8887,1.889,1.8882,1.8894,1.8992,1.8994,1.8996,1.8997,0,1.6892,1.6943,1.7102,1.7282,1.7412,1.7556,1.77,1.7777,1.7904,1.8024,1.8204,1.8318,1.854,1.8712,1.8887,1.8978,1.9008,1.9018,1.9049,1.903,1.8989,1.9013,1.8748,1.9011,1.9009,1.9008,1.9007,1.9007,1.7017,1.7137,1.7302,1.7476,1.7596,1.7729,1.7852,1.7959,1.8112,1.8305,1.8354,1.8542,1.8691,1.8929,1.9024,1.9168,1.9153,1.9199,1.9211,1.9221,1.9224,1.8965,1.92,1.9199,1.9199,1.9199,1.9199,0,1.7219,1.7328,1.7488,1.769,1.7826,1.7848,1.8007,1.8118,1.8285,1.8424,1.8569,1.8773,1.8941,1.9071,1.9241,1.9331,1.9349,1.9373,1.9367,1.9388,1.9227,1.9183,1.9356,1.9356,1.9356,1.9356,1.9356,1.9355,1.734,1.7544,1.7614,1.7876,1.7982,1.8172,1.826,1.8382,1.8494,1.8722,1.8865,1.895,1.9085,1.9266,1.9419,1.9452,1.9512,1.9533,1.9568,1.9416,1.9399,1.9383,1.9342,1.9545,1.9546,1.9718,1.9719,1.972]}]]